BEIDOU-2 IGSO-1

Last updated on Tue Sep 16 2025 00:02:47 GMT+0000 (Coordinated Universal Time)

1 36828U 10036A 25258.66660685 -.00000155 00000+0 00000+0 0 9992 2 36828 54.2778 165.4490 0048555 216.7894 317.0639 1.00250748 55348
UTC large
Height (km)
Speed (km/s)
/
Latitude / Longitude
Inclination (degrees)
Orbital Period (minutes)
Azimuth
Elevation
Range (km)
Doppler Factor

Next 0 passes for location: London (51.5072 / 0.1276)

Sorry there are no passes over London.